Content
SEND FEEDBACK

Daily
Averages
Monthly
Summary
United States of America

COLDWATER, TENNESSEE


Home > North America > United States > Tennessee
Elevation: 65 feet     Latitude: 35 05N     Longitude: 086 44W

WEATHER
 
SELECT A DAY
Number of Records: 298,809;   Date Range: 4/22/02 - 9/22/14
 
SHARE

PRINT THIS DATA

[ ← Previous Day ]
WEATHER ALMANAC - SEPTEMBER 5, 2013
[ Next Day → ]
[ °C ]   °F
Weather ElementAverageHighLow
Temperature70.8 °F84.2 °F (3:35 pm)59 °F (5:35 am)
Dewpoint58.6 °F62.6 °F (8:55 am)51.8 °F (4:55 pm)
Humidity69.5 %94 % (3:35 am)33 % (4:55 pm)
Barometer30.14 in30.19 in (9:55 am)30.11 in (6:15 pm)
Wind Speed0.5 mph6.9 mph (4:35 pm)
Weather ElementAverage
Visibility9.1 mi
Wind DirectionNNE (11.7 °)

Weather ElementTotal
Precipitation---
Cooling Degree Days6.6 (Base 65)
Growing Degree Days21.6 (Base 50)
Averaged from 71 records on September 5, 2013
WEATHER CONDITIONS BREAKOUT
WIND DIRECTION BREAKOUT
WEATHER BY HOUR - SEPTEMBER 5, 2013
[ °C ]   °F
Local TimeTemperatureDewpointHumidityBarometerVisibilityWind DirectionWind SpeedGust SpeedPrecipitationEventsConditions
12:35 AM64.4 °F60.8 °F88 %30.13 in10.0 miCalmClear
12:55 AM64.4 °F60.8 °F88 %30.13 in7.0 miCalmClear
1:15 AM64.4 °F60.8 °F88 %30.13 in10.0 miCalmClear
1:35 AM62.6 °F59.0 °F88 %30.12 in7.0 miCalmClear
1:55 AM62.6 °F59.0 °F88 %30.12 in10.0 miCalmClear
2:15 AM62.6 °F59.0 °F88 %30.12 in7.0 miCalmClear
2:35 AM62.6 °F59.0 °F88 %30.12 in7.0 miCalmClear
2:55 AM62.6 °F59.0 °F88 %30.12 in10.0 miCalmClear
3:15 AM62.6 °F59.0 °F88 %30.13 in7.0 miCalmClear
3:35 AM60.8 °F59.0 °F94 %30.13 in5.0 miCalmClear
3:55 AM60.8 °F59.0 °F94 %30.13 in5.0 miCalmClear
4:15 AM60.8 °F59.0 °F94 %30.13 in10.0 miCalmClear
4:35 AM60.8 °F57.2 °F88 %30.14 in10.0 miCalmClear
4:55 AM60.8 °F59.0 °F94 %30.14 in10.0 miCalmClear
5:15 AM60.8 °F59.0 °F94 %30.13 in5.0 miCalmClear
5:35 AM59.0 °F55.4 °F88 %30.14 in10.0 miCalmClear
5:55 AM60.8 °F57.2 °F88 %30.14 in5.0 miCalmClear
6:15 AM59.0 °F55.4 °F88 %30.15 in7.0 miCalmClear
6:35 AM59.0 °F55.4 °F88 %30.16 in5.0 miCalmClear
6:55 AM59.0 °F55.4 °F88 %30.16 in5.0 miCalmClear
7:15 AM59.0 °F57.2 °F94 %30.17 in5.0 miCalmClear
7:35 AM60.8 °F57.2 °F88 %30.17 in7.0 miCalmClear
7:55 AM62.6 °F59.0 °F88 %30.17 in7.0 miCalmClear
8:15 AM62.6 °F60.8 °F94 %30.17 in7.0 miCalmClear
8:35 AM64.4 °F60.8 °F88 %30.17 in10.0 miCalmClear
8:55 AM68.0 °F62.6 °F83 %30.17 in10.0 miCalmClear
9:15 AM68.0 °F62.6 °F83 %30.17 in10.0 miCalmClear
9:35 AM69.8 °F62.6 °F78 %30.18 in10.0 miCalmClear
9:55 AM71.6 °F60.8 °F69 %30.19 in10.0 miCalmClear
10:15 AM75.2 °F60.8 °F61 %30.19 in10.0 miCalmClear
10:35 AM77.0 °F60.8 °F57 %30.19 in10.0 miCalmClear
10:55 AM77.0 °F59.0 °F54 %30.19 in10.0 miCalmClear
11:15 AM78.8 °F59.0 °F51 %30.18 in10.0 miCalmClear
11:35 AM78.8 °F53.6 °F42 %30.18 in10.0 miCalmClear
11:55 AM80.6 °F55.4 °F42 %30.18 in10.0 miCalmClear
12:15 PM80.6 °F55.4 °F42 %30.17 in10.0 miCalmClear
12:35 PM80.6 °F55.4 °F42 %30.17 in10.0 miCalmClear
12:55 PM80.6 °F55.4 °F42 %30.16 in10.0 miCalmClear
1:15 PM82.4 °F55.4 °F39 %30.16 in10.0 miCalmClear
1:35 PM82.4 °F55.4 °F39 %30.16 in10.0 miNNE (30°)3.5 mphClear
1:55 PM82.4 °F55.4 °F39 %30.15 in10.0 miCalmClear
2:15 PM82.4 °F55.4 °F39 %30.14 in10.0 miCalmClear
2:35 PM82.4 °F57.2 °F42 %30.13 in10.0 miNorth (10°)3.5 mphClear
2:55 PM82.4 °F55.4 °F39 %30.13 in10.0 miNW (310°)4.6 mphClear
3:15 PM82.4 °F53.6 °F37 %30.12 in10.0 miCalmClear
3:35 PM84.2 °F55.4 °F37 %30.12 in10.0 miNE (50°)3.5 mphClear
3:55 PM84.2 °F53.6 °F35 %30.12 in10.0 miNorth (350°)3.5 mphClear
4:15 PM84.2 °F55.4 °F37 %30.12 in10.0 miNorth (10°)5.8 mphClear
4:35 PM84.2 °F53.6 °F35 %30.12 in10.0 miNorth (10°)6.9 mphClear
4:55 PM84.2 °F51.8 °F33 %30.12 in10.0 miENE (60°)5.8 mphClear
5:15 PM82.4 °F51.8 °F35 %30.12 in10.0 miCalmClear
5:35 PM82.4 °F55.4 °F39 %30.12 in10.0 miCalmClear
5:55 PM82.4 °F55.4 °F39 %30.12 in10.0 miCalmClear
6:15 PM80.6 °F59.0 °F48 %30.11 in10.0 miCalmClear
6:35 PM78.8 °F62.6 °F57 %30.12 in10.0 miCalmClear
6:55 PM75.2 °F62.6 °F65 %30.12 in10.0 miCalmClear
7:15 PM73.4 °F62.6 °F69 %30.12 in10.0 miCalmClear
7:35 PM71.6 °F62.6 °F73 %30.12 in10.0 miCalmClear
7:55 PM71.6 °F62.6 °F73 %30.13 in10.0 miCalmClear
8:15 PM69.8 °F62.6 °F78 %30.13 in10.0 miCalmClear
8:35 PM69.8 °F62.6 °F78 %30.14 in10.0 miCalmClear
8:55 PM68.0 °F62.6 °F83 %30.14 in10.0 miCalmClear
9:15 PM68.0 °F62.6 °F83 %30.14 in10.0 miCalmClear
9:35 PM68.0 °F62.6 °F83 %30.15 in10.0 miCalmClear
9:55 PM68.0 °F62.6 °F83 %30.15 in10.0 miCalmClear
10:15 PM68.0 °F60.8 °F78 %30.15 in10.0 miCalmClear
10:35 PM66.2 °F60.8 °F83 %30.15 in10.0 miCalmClear
10:55 PM66.2 °F60.8 °F83 %30.16 in10.0 miCalmClear
11:15 PM64.4 °F60.8 °F88 %30.15 in10.0 miCalmClear
11:35 PM64.4 °F60.8 °F88 %30.15 in10.0 miCalmClear
11:55 PM64.4 °F60.8 °F88 %30.15 in10.0 miCalmClear
Hourly data recorded from KMDQ, located miles away from Coldwater, Tennessee







STORIES FROM OUR PARTNERS